Christchurch, New Zealand

10:28 PM NZDT on December 18, 2017 (GMT +1300)
Christchurch International

Weather History for NZCH - November, 2013

Change the Weather History Date:

Monday, November 18, 2013

  Actual Average Record
Temperature  
Mean Temperature 61 °F -  
Max Temperature 69 °F 64 °F 73 °F (2010)
Min Temperature 53 °F 46 °F 37 °F (2000)
Degree Days  
Heating Degree Days 4    
Growing Degree Days 11 (Base 50)    
Moisture  
Dew Point 54 °F    
Average Humidity 82    
Maximum Humidity 100    
Minimum Humidity 60    
Precipitation  
Precipitation 0.00 in - - ()
Sea Level Pressure  
Sea Level Pressure 30.12 in    
Wind  
Wind Speed 7 mph ()    
Max Wind Speed 14 mph    
Max Gust Speed -    
Visibility 6.2 miles    
Events      
Averages and records for this station are not official NWS values.
T = Trace of Precipitation, MM = Missing Value Source: Averaged Metar Reports

Daily Weather History Graph

Daily Weather History Graph

Search for Another Location

Airport or City:

Trip Planner

Search our weather history database for the weather conditions in past years. The results will help you decide how hot, cold, wet, or windy it might be!

Date:

Astronomy

Nov. 18, 2013 Rise Set
Actual Time 5:52 AM NZDT 8:37 PM NZDT
Civil Twilight 5:19 AM NZDT 9:10 PM NZDT
Nautical Twilight 4:38 AM NZDT 9:52 PM NZDT
Astronomical Twilight 3:50 AM NZDT 10:41 PM NZDT
Moon 9:05 PM NZDT 6:09 AM NZDT
Length of Visible Light 15h 51m
Length of Day
14h 44m
Full, 100% of the Moon is Illuminated
Nov 18
Full
Nov 26
Last Quarter
Dec 3
New
Dec 10
First Quarter
Dec 17
Full

Hourly Weather History & Observations

Time (NZDT) Temp. Dew Point Humidity Pressure Visibility Wind Dir Wind Speed Gust Speed Precip Events Conditions
12:00 AM 55.4 °F 51.8 °F 88% 30.06 in 6.2 mi ENE 10.4 mph - N/A   Overcast
12:30 AM 55.4 °F 51.8 °F 88% 30.09 in 6.2 mi East 9.2 mph - N/A   Overcast
1:00 AM 55.4 °F 51.8 °F 88% 30.09 in 6.2 mi East 8.1 mph - N/A   Overcast
2:00 AM 55.4 °F 51.8 °F 88% 30.06 in 6.2 mi East 8.1 mph - N/A   Overcast
2:30 AM 55.4 °F 51.8 °F 88% 30.06 in 6.2 mi East 6.9 mph - N/A   Overcast
3:00 AM 55.4 °F 51.8 °F 88% 30.06 in 6.2 mi East 6.9 mph - N/A   Overcast
3:30 AM 55.4 °F 51.8 °F 88% 30.06 in 6.2 mi East 5.8 mph - N/A   Overcast
4:00 AM 55.4 °F 51.8 °F 88% 30.06 in 6.2 mi East 5.8 mph - N/A   Overcast
4:30 AM 55.4 °F 51.8 °F 88% 30.06 in 6.2 mi East 5.8 mph - N/A   Overcast
5:00 AM 55.4 °F 53.6 °F 94% 30.06 in 6.2 mi NE 3.5 mph - N/A   Overcast
5:30 AM 53.6 °F 53.6 °F 100% 30.09 in 6.2 mi NE 4.6 mph - N/A   Overcast
6:00 AM 53.6 °F 53.6 °F 100% 30.09 in 6.2 mi NE 3.5 mph - N/A   Overcast
6:30 AM 55.4 °F 53.6 °F 94% 30.09 in 6.2 mi NNE 3.5 mph - N/A   Mostly Cloudy
7:00 AM 55.4 °F 53.6 °F 94% 30.09 in 6.2 mi NNW 1.2 mph - N/A   Overcast
7:30 AM 55.4 °F 53.6 °F 94% 30.09 in 6.2 mi NNE 1.2 mph - N/A   Overcast
8:00 AM 57.2 °F 53.6 °F 88% 30.12 in 6.2 mi North 2.3 mph - N/A   Overcast
8:30 AM 57.2 °F 53.6 °F 88% 30.12 in 6.2 mi Calm Calm - N/A   Overcast
9:00 AM 59.0 °F 53.6 °F 82% 30.12 in 6.2 mi SSE 2.3 mph - N/A   Mostly Cloudy
9:30 AM 59.0 °F 53.6 °F 82% 30.12 in 6.2 mi South 1.2 mph - N/A   Mostly Cloudy
10:00 AM 60.8 °F 51.8 °F 72% 30.12 in 6.2 mi North 1.2 mph - N/A   Mostly Cloudy
10:30 AM 60.8 °F 53.6 °F 77% 30.12 in 6.2 mi ENE 4.6 mph - N/A   Overcast
11:00 AM 60.8 °F 53.6 °F 77% 30.12 in 6.2 mi ENE 5.8 mph - N/A   Overcast
11:30 AM 60.8 °F 53.6 °F 77% 30.12 in 6.2 mi NE 4.6 mph - N/A   Overcast
12:00 PM 62.6 °F 53.6 °F 72% 30.12 in 6.2 mi ENE 5.8 mph - N/A   Overcast
12:30 PM 64.4 °F 53.6 °F 68% 30.12 in 6.2 mi ENE 5.8 mph - N/A   Overcast
1:00 PM 66.2 °F 55.4 °F 68% 30.12 in 6.2 mi East 9.2 mph - N/A   Mostly Cloudy
1:30 PM 66.2 °F 53.6 °F 64% 30.12 in 6.2 mi East 8.1 mph - N/A   Scattered Clouds
2:00 PM 66.2 °F 53.6 °F 64% 30.12 in 6.2 mi East 8.1 mph - N/A   Partly Cloudy
2:30 PM 68.0 °F 55.4 °F 64% 30.12 in 6.2 mi East 10.4 mph - N/A   Scattered Clouds
3:00 PM 69.8 °F 55.4 °F 60% 30.12 in 6.2 mi East 11.5 mph - N/A   Scattered Clouds
3:30 PM 68.0 °F 55.4 °F 64% 30.12 in 6.2 mi East 12.7 mph - N/A   Partly Cloudy
4:00 PM 66.2 °F 53.6 °F 64% 30.09 in 6.2 mi East 12.7 mph - N/A   Partly Cloudy
4:30 PM 64.4 °F 55.4 °F 73% 30.09 in 6.2 mi ENE 13.8 mph - N/A   Unknown
5:00 PM 64.4 °F 55.4 °F 73% 30.12 in 6.2 mi ENE 13.8 mph - N/A   Mostly Cloudy
5:30 PM 62.6 °F 53.6 °F 72% 30.12 in 6.2 mi ENE 13.8 mph - N/A   Mostly Cloudy
6:00 PM 60.8 °F 53.6 °F 77% 30.12 in 6.2 mi ENE 13.8 mph - N/A   Mostly Cloudy
6:30 PM 60.8 °F 53.6 °F 77% 30.12 in 6.2 mi East 12.7 mph - N/A   Mostly Cloudy
7:00 PM 60.8 °F 53.6 °F 77% 30.15 in 6.2 mi East 13.8 mph - N/A   Mostly Cloudy
7:30 PM 59.0 °F 53.6 °F 82% 30.15 in 6.2 mi East 11.5 mph - N/A   Overcast
8:00 PM 59.0 °F 53.6 °F 82% 30.18 in 6.2 mi ENE 11.5 mph - N/A   Overcast
8:30 PM 59.0 °F 53.6 °F 82% 30.18 in 6.2 mi ENE 10.4 mph - N/A   Overcast
9:00 PM 59.0 °F 53.6 °F 82% 30.18 in 6.2 mi East 8.1 mph - N/A   Mostly Cloudy
9:30 PM 59.0 °F 53.6 °F 82% 30.21 in 6.2 mi ENE 9.2 mph - N/A   Overcast
10:00 PM 57.2 °F 55.4 °F 94% 30.21 in 6.2 mi ENE 8.1 mph - N/A   Mostly Cloudy
10:30 PM 57.2 °F 55.4 °F 94% 30.21 in 6.2 mi ENE 6.9 mph - N/A   Overcast
11:00 PM 57.2 °F 55.4 °F 94% 30.21 in 6.2 mi East 6.9 mph - N/A   Overcast
11:30 PM 57.2 °F 55.4 °F 94% 30.21 in 6.2 mi ENE 8.1 mph - N/A   Overcast